Time,TemperatureF,DewpointF,PressureIn,WindDirection,WindDirectionDegrees,WindSpeedMPH,WindSpeedGustMPH,Humidity,HourlyPrecipIn,Conditions,Clouds,dailyrainin,SoftwareType,DateUTC
2013-05-02 00:11:00,52.8,45.0,30.45,SSE,166,2.0,18.0,76,0.00,,,0.00,weatherlink.com 1.10,2013-05-02 04:11:00,
2013-05-02 00:26:00,52.5,45.0,30.45,SE,138,7.0,14.0,77,0.00,,,0.00,weatherlink.com 1.10,2013-05-02 04:26:00,
2013-05-02 00:41:00,52.3,46.0,30.45,ESE,115,5.0,11.0,78,0.00,,,0.00,weatherlink.com 1.10,2013-05-02 04:41:00,
2013-05-02 00:56:00,51.8,46.0,30.44,ESE,104,8.0,18.0,79,0.00,,,0.00,weatherlink.com 1.10,2013-05-02 04:56:00,
2013-05-02 01:11:00,51.7,46.0,30.44,SSE,148,9.0,12.0,80,0.00,,,0.00,weatherlink.com 1.10,2013-05-02 05:11:00,
2013-05-02 01:26:00,51.5,46.0,30.44,ESE,103,7.0,16.0,80,0.00,,,0.00,weatherlink.com 1.10,2013-05-02 05:26:00,
2013-05-02 01:41:00,51.4,45.0,30.43,ESE,121,9.0,12.0,80,0.00,,,0.00,weatherlink.com 1.10,2013-05-02 05:41:00,
2013-05-02 01:56:00,51.2,46.0,30.43,SE,140,6.0,14.0,81,0.00,,,0.00,weatherlink.com 1.10,2013-05-02 05:56:00,
2013-05-02 02:11:00,51.0,45.0,30.43,SE,133,5.0,11.0,81,0.00,,,0.00,weatherlink.com 1.10,2013-05-02 06:11:00,
2013-05-02 02:26:00,50.5,46.0,30.42,ESE,115,2.0,12.0,83,0.00,,,0.00,weatherlink.com 1.10,2013-05-02 06:26:00,
2013-05-02 02:41:00,50.0,45.0,30.42,SE,125,4.0,16.0,84,0.00,,,0.00,weatherlink.com 1.10,2013-05-02 06:41:00,
2013-05-02 02:56:00,49.6,46.0,30.41,SE,132,7.0,14.0,86,0.00,,,0.00,weatherlink.com 1.10,2013-05-02 06:56:00,
2013-05-02 03:11:00,49.5,46.0,30.41,ESE,103,3.0,11.0,87,0.00,,,0.00,weatherlink.com 1.10,2013-05-02 07:11:00,
2013-05-02 03:26:00,49.3,46.0,30.41,East,90,2.0,12.0,88,0.00,,,0.00,weatherlink.com 1.10,2013-05-02 07:26:00,
2013-05-02 03:41:00,49.2,46.0,30.41,SE,139,3.0,13.0,88,0.00,,,0.00,weatherlink.com 1.10,2013-05-02 07:41:00,
2013-05-02 03:56:00,49.1,46.0,30.42,SE,146,0.0,12.0,88,0.00,,,0.00,weatherlink.com 1.10,2013-05-02 07:56:00,
2013-05-02 04:12:00,48.9,46.0,30.42,NE,34,0.0,10.0,89,0.00,,,0.00,weatherlink.com 1.10,2013-05-02 08:12:00,
2013-05-02 04:27:00,48.7,46.0,30.41,ESE,115,9.0,9.0,89,0.00,,,0.00,weatherlink.com 1.10,2013-05-02 08:27:00,
2013-05-02 04:42:00,48.6,46.0,30.41,SE,140,6.0,8.0,89,0.00,,,0.00,weatherlink.com 1.10,2013-05-02 08:42:00,
2013-05-02 04:57:00,48.5,46.0,30.41,ESE,110,1.0,11.0,89,0.00,,,0.00,weatherlink.com 1.10,2013-05-02 08:57:00,
2013-05-02 05:12:00,48.3,45.0,30.41,ESE,105,3.0,12.0,88,0.00,,,0.00,weatherlink.com 1.10,2013-05-02 09:12:00,
2013-05-02 05:27:00,48.1,44.0,30.41,SE,126,3.0,12.0,87,0.00,,,0.00,weatherlink.com 1.10,2013-05-02 09:27:00,
2013-05-02 05:42:00,48.0,44.0,30.41,SE,133,0.0,8.0,87,0.00,,,0.00,weatherlink.com 1.10,2013-05-02 09:42:00,
2013-05-02 05:57:00,47.9,44.0,30.41,ESE,122,7.0,13.0,87,0.00,,,0.00,weatherlink.com 1.10,2013-05-02 09:57:00,
2013-05-02 06:12:00,47.7,44.0,30.42,SE,126,3.0,12.0,87,0.00,,,0.00,weatherlink.com 1.10,2013-05-02 10:12:00,
2013-05-02 06:27:00,47.6,44.0,30.42,SE,126,1.0,10.0,87,0.00,,,0.00,weatherlink.com 1.10,2013-05-02 10:27:00,
2013-05-02 06:42:00,47.6,44.0,30.42,ESE,123,3.0,8.0,87,0.00,,,0.00,weatherlink.com 1.10,2013-05-02 10:42:00,
2013-05-02 06:57:00,47.7,44.0,30.42,SE,129,4.0,15.0,86,0.00,,,0.00,weatherlink.com 1.10,2013-05-02 10:57:00,
2013-05-02 07:12:00,47.9,44.0,30.43,SE,136,5.0,8.0,85,0.00,,,0.00,weatherlink.com 1.10,2013-05-02 11:12:00,
2013-05-02 07:27:00,48.1,44.0,30.43,SE,138,2.0,7.0,84,0.00,,,0.00,weatherlink.com 1.10,2013-05-02 11:27:00,
2013-05-02 07:42:00,48.1,43.0,30.44,ESE,104,8.0,13.0,83,0.00,,,0.00,weatherlink.com 1.10,2013-05-02 11:42:00,
2013-05-02 07:57:00,48.3,43.0,30.44,ESE,119,8.0,12.0,81,0.00,,,0.00,weatherlink.com 1.10,2013-05-02 11:57:00,
2013-05-02 08:12:00,48.7,42.0,30.45,East,82,7.0,15.0,78,0.00,,,0.00,weatherlink.com 1.10,2013-05-02 12:12:00,
2013-05-02 08:27:00,49.0,42.0,30.45,ESE,109,4.0,13.0,76,0.00,,,0.00,weatherlink.com 1.10,2013-05-02 12:27:00,
2013-05-02 08:42:00,49.1,41.0,30.45,SE,130,4.0,14.0,74,0.00,,,0.00,weatherlink.com 1.10,2013-05-02 12:42:00,
2013-05-02 08:57:00,49.6,42.0,30.45,ESE,119,15.0,15.0,74,0.00,,,0.00,weatherlink.com 1.10,2013-05-02 12:57:00,
2013-05-02 09:12:00,50.3,41.0,30.45,ESE,113,11.0,18.0,71,0.00,,,0.00,weatherlink.com 1.10,2013-05-02 13:12:00,
2013-05-02 09:27:00,50.6,41.0,30.45,ESE,102,11.0,18.0,71,0.00,,,0.00,weatherlink.com 1.10,2013-05-02 13:27:00,
2013-05-02 09:42:00,51.1,42.0,30.45,East,98,1.0,17.0,71,0.00,,,0.00,weatherlink.com 1.10,2013-05-02 13:42:00,
2013-05-02 09:57:00,51.7,43.0,30.45,ESE,105,4.0,19.0,71,0.00,,,0.00,weatherlink.com 1.10,2013-05-02 13:57:00,
2013-05-02 10:12:00,52.2,43.0,30.45,SE,134,11.0,16.0,71,0.00,,,0.00,weatherlink.com 1.10,2013-05-02 14:12:00,
2013-05-02 10:27:00,52.0,43.0,30.45,ESE,107,1.0,20.0,72,0.00,,,0.00,weatherlink.com 1.10,2013-05-02 14:27:00,
2013-05-02 10:42:00,52.9,44.0,30.46,SE,126,6.0,15.0,73,0.00,,,0.00,weatherlink.com 1.10,2013-05-02 14:42:00,
2013-05-02 10:57:00,53.5,45.0,30.46,East,97,11.0,15.0,73,0.00,,,0.00,weatherlink.com 1.10,2013-05-02 14:57:00,
2013-05-02 11:12:00,55.0,46.0,30.46,SSE,160,3.0,14.0,71,0.00,,,0.00,weatherlink.com 1.10,2013-05-02 15:12:00,
2013-05-02 11:27:00,55.4,46.0,30.46,SE,127,8.0,18.0,71,0.00,,,0.00,weatherlink.com 1.10,2013-05-02 15:27:00,
2013-05-02 11:42:00,57.1,47.0,30.47,SSE,153,3.0,15.0,68,0.00,,,0.00,weatherlink.com 1.10,2013-05-02 15:42:00,
2013-05-02 11:58:00,57.7,48.0,30.46,SSW,211,0.0,13.0,69,0.00,,,0.00,weatherlink.com 1.10,2013-05-02 15:58:00,
2013-05-02 12:13:00,58.8,47.0,30.46,ESE,121,4.0,13.0,66,0.00,,,0.00,weatherlink.com 1.10,2013-05-02 16:13:00,
2013-05-02 12:28:00,59.6,48.0,30.46,SSE,148,14.0,18.0,65,0.00,,,0.00,weatherlink.com 1.10,2013-05-02 16:28:00,
2013-05-02 12:43:00,60.0,48.0,30.46,SSE,155,12.0,15.0,65,0.00,,,0.00,weatherlink.com 1.10,2013-05-02 16:43:00,
2013-05-02 12:58:00,60.8,47.0,30.46,ESE,123,4.0,17.0,61,0.00,,,0.00,weatherlink.com 1.10,2013-05-02 16:58:00,
2013-05-02 13:13:00,62.3,48.0,30.45,SSE,153,2.0,13.0,59,0.00,,,0.00,weatherlink.com 1.10,2013-05-02 17:13:00,
2013-05-02 13:28:00,61.1,48.0,30.45,ESE,114,1.0,15.0,63,0.00,,,0.00,weatherlink.com 1.10,2013-05-02 17:28:00,
2013-05-02 13:43:00,62.1,49.0,30.45,ESE,123,3.0,9.0,63,0.00,,,0.00,weatherlink.com 1.10,2013-05-02 17:43:00,
2013-05-02 13:58:00,61.5,48.0,30.44,SE,146,6.0,15.0,62,0.00,,,0.00,weatherlink.com 1.10,2013-05-02 17:58:00,
2013-05-02 14:13:00,61.3,48.0,30.44,ENE,64,0.0,17.0,63,0.00,,,0.00,weatherlink.com 1.10,2013-05-02 18:13:00,
2013-05-02 14:28:00,62.1,48.0,30.43,South,171,5.0,13.0,60,0.00,,,0.00,weatherlink.com 1.10,2013-05-02 18:28:00,
2013-05-02 14:43:00,63.3,48.0,30.43,South,177,9.0,12.0,58,0.00,,,0.00,weatherlink.com 1.10,2013-05-02 18:43:00,
2013-05-02 14:58:00,64.0,49.0,30.43,East,86,0.0,13.0,58,0.00,,,0.00,weatherlink.com 1.10,2013-05-02 18:58:00,
2013-05-02 15:13:00,64.0,49.0,30.43,ENE,65,0.0,10.0,58,0.00,,,0.00,weatherlink.com 1.10,2013-05-02 19:13:00,
2013-05-02 15:28:00,62.6,48.0,30.42,SE,145,4.0,12.0,60,0.00,,,0.00,weatherlink.com 1.10,2013-05-02 19:28:00,
2013-05-02 15:43:00,62.6,48.0,30.42,ESE,120,10.0,15.0,60,0.00,,,0.00,weatherlink.com 1.10,2013-05-02 19:43:00,
2013-05-02 15:58:00,62.7,48.0,30.41,East,93,0.0,12.0,60,0.00,,,0.00,weatherlink.com 1.10,2013-05-02 19:58:00,
2013-05-02 16:13:00,62.7,49.0,30.41,ENE,78,0.0,11.0,61,0.00,,,0.00,weatherlink.com 1.10,2013-05-02 20:13:00,
2013-05-02 16:28:00,62.6,49.0,30.41,East,97,2.0,10.0,61,0.00,,,0.00,weatherlink.com 1.10,2013-05-02 20:28:00,
2013-05-02 16:43:00,62.8,49.0,30.40,SE,130,1.0,9.0,62,0.00,,,0.00,weatherlink.com 1.10,2013-05-02 20:43:00,
2013-05-02 16:58:00,62.9,49.0,30.40,ESE,116,12.0,19.0,61,0.00,,,0.00,weatherlink.com 1.10,2013-05-02 20:58:00,
2013-05-02 17:13:00,62.4,48.0,30.40,SE,142,2.0,12.0,60,0.00,,,0.00,weatherlink.com 1.10,2013-05-02 21:13:00,
2013-05-02 17:28:00,62.1,49.0,30.39,SE,136,1.0,9.0,62,0.00,,,0.00,weatherlink.com 1.10,2013-05-02 21:28:00,
2013-05-02 17:43:00,61.9,49.0,30.40,SE,128,5.0,13.0,63,0.00,,,0.00,weatherlink.com 1.10,2013-05-02 21:43:00,
2013-05-02 17:58:00,62.0,49.0,30.39,SE,130,6.0,13.0,63,0.00,,,0.00,weatherlink.com 1.10,2013-05-02 21:58:00,
2013-05-02 18:13:00,61.9,48.0,30.39,SSE,167,4.0,12.0,61,0.00,,,0.00,weatherlink.com 1.10,2013-05-02 22:13:00,
2013-05-02 18:28:00,61.9,48.0,30.39,ESE,117,0.0,12.0,61,0.00,,,0.00,weatherlink.com 1.10,2013-05-02 22:28:00,
2013-05-02 18:43:00,61.4,49.0,30.38,SE,134,5.0,13.0,63,0.00,,,0.00,weatherlink.com 1.10,2013-05-02 22:43:00,
2013-05-02 18:58:00,60.9,49.0,30.38,SE,126,5.0,16.0,65,0.00,,,0.00,weatherlink.com 1.10,2013-05-02 22:58:00,
2013-05-02 19:13:00,60.5,49.0,30.38,ESE,119,2.0,10.0,66,0.00,,,0.00,weatherlink.com 1.10,2013-05-02 23:13:00,
2013-05-02 19:28:00,59.7,49.0,30.38,SE,131,4.0,12.0,68,0.00,,,0.00,weatherlink.com 1.10,2013-05-02 23:28:00,
2013-05-02 19:43:00,59.0,49.0,30.39,ESE,117,2.0,9.0,69,0.00,,,0.00,weatherlink.com 1.10,2013-05-02 23:43:00,
2013-05-02 19:58:00,58.1,48.0,30.39,NE,54,2.0,13.0,70,0.00,,,0.00,weatherlink.com 1.10,2013-05-02 23:58:00,
2013-05-02 20:13:00,57.4,48.0,30.39,SE,129,0.0,10.0,72,0.00,,,0.00,weatherlink.com 1.10,2013-05-03 00:13:00,
2013-05-02 20:28:00,56.7,49.0,30.39,SE,139,1.0,7.0,74,0.00,,,0.00,weatherlink.com 1.10,2013-05-03 00:28:00,
2013-05-02 20:43:00,56.1,49.0,30.39,ESE,111,0.0,9.0,76,0.00,,,0.00,weatherlink.com 1.10,2013-05-03 00:43:00,
2013-05-02 20:58:00,55.7,49.0,30.39,SE,124,7.0,10.0,77,0.00,,,0.00,weatherlink.com 1.10,2013-05-03 00:58:00,
2013-05-02 21:13:00,55.1,49.0,30.39,ESE,115,8.0,9.0,79,0.00,,,0.00,weatherlink.com 1.10,2013-05-03 01:13:00,
2013-05-02 21:28:00,54.6,49.0,30.39,SSE,150,5.0,11.0,80,0.00,,,0.00,weatherlink.com 1.10,2013-05-03 01:28:00,
2013-05-02 21:43:00,54.5,48.0,30.40,SE,127,6.0,14.0,80,0.00,,,0.00,weatherlink.com 1.10,2013-05-03 01:43:00,
2013-05-02 21:58:00,54.2,49.0,30.40,East,96,9.0,15.0,81,0.00,,,0.00,weatherlink.com 1.10,2013-05-03 01:58:00,
2013-05-02 22:13:00,53.9,48.0,30.40,SE,134,8.0,13.0,81,0.00,,,0.00,weatherlink.com 1.10,2013-05-03 02:13:00,
2013-05-02 22:28:00,53.6,48.0,30.40,SE,146,7.0,11.0,81,0.00,,,0.00,weatherlink.com 1.10,2013-05-03 02:28:00,
2013-05-02 22:43:00,53.3,48.0,30.40,ESE,121,3.0,10.0,82,0.00,,,0.00,weatherlink.com 1.10,2013-05-03 02:43:00,
2013-05-02 22:58:00,52.9,47.0,30.40,SE,136,5.0,14.0,80,0.00,,,0.00,weatherlink.com 1.10,2013-05-03 02:58:00,
2013-05-02 23:13:00,52.6,46.0,30.40,ESE,118,5.0,13.0,79,0.00,,,0.00,weatherlink.com 1.10,2013-05-03 03:13:00,
2013-05-02 23:28:00,52.3,46.0,30.39,East,96,7.0,17.0,79,0.00,,,0.00,weatherlink.com 1.10,2013-05-03 03:28:00,
2013-05-02 23:43:00,51.9,46.0,30.39,SE,124,6.0,17.0,79,0.00,,,0.00,weatherlink.com 1.10,2013-05-03 03:43:00,
2013-05-02 23:58:00,51.6,45.0,30.39,ESE,107,2.0,16.0,78,0.00,,,0.00,weatherlink.com 1.10,2013-05-03 03:58:00,